sat.trackr.live / text

‹ back to catalog

ONEWEB-0541

NORAD 55142 · 2023-004C

PAYLOAD ACTIVE UNKNOWN

§ Identity

Operator
Country
UK
Launch date
2023-01-10
Launch site
AFETR
Launch vehicle
Mass (kg)
RCS (m²)

Purposes: comms

External: N2YO · Heavens-Above · Gunter

§ Orbital elements

Epoch: 2026-09-19T13:28:27.981408Z

Period
109.81 min
Inclination
87.8972°
Eccentricity
0.0001628
Mean motion
13.11403557 rev/d
Perigee alt
1,216.5 km
Apogee alt
1,219.0 km
Semi-major
7,595.9 km
B*
-4.9296e-3
RAAN
2.3023°
Arg perigee
104.1396°
Mean anomaly
255.9913°
Rev number
17,831

§ Raw data

ONEWEB-05411 55142U 23004C   26262.56143497 -.00001734  00000+0 -49296-2 0  99912 55142  87.8972   2.3023 0001628 104.1396 255.9913 13.11403557178315

JSON: /api/v1/satellites/55142 · /tle

For live sub-satellite position, see the globe view (requires WebGL).

§ Visibility from observer

Set your observer location to see the next 7 days of passes ≥ 10°. The values pass through the URL so the page stays shareable.

No JS? Fill the form by hand. The geolocation button needs JavaScript.